Hourly Data Report for August 12, 2000

SHERBROOKE A
QUEBEC

45°26'00.000" N
71°41'00.000" W
241.40 m
7028124
71610
YSC

Download Data

Hourly Data (August 2000)
Hourly Data Report for August 12, 2000
TIME
LST
Temp Definition
°C
Dew Point Definition
°C
Rel Hum Definition
%
Precip. Amount Definition
mm

Wind Dir Definition
10's deg

Wind Spd Definition
km/h
Visibility Definition
km
Stn Press Definition
kPa
Hmdx Definition


Wind Chill Definition


Weather Definition


00:00 14.2 13.9 98     0 9.7 98.82      
01:00 14.9 14.0 94   7 9 15.0 98.82      
02:00 14.0 13.1 94   7 9 15.0 98.82      
03:00 13.6 12.7 94   7 9 15.0 98.79      
04:00 13.1 12.3 95   8 11 15.0 98.82      
05:00 13.3 12.1 92   6 11 15.0 98.85      
06:00 13.7 12.6 93   6 9 15.0 98.85      
07:00 14.7 12.8 88   5 9 24.1 98.88     Mainly Clear
08:00 17.1 13.7 80   3 13 24.1 98.95     Mainly Clear
09:00 19.8 14.8 73   2 9 24.1 98.92     Mainly Clear
10:00 22.1 13.8 59   3 13 24.1 98.88 25   Mainly Clear
11:00 23.6 14.2 56   6 15 24.1 98.85 27   Mainly Clear
12:00 24.6 12.1 46   8 15 24.1 98.82 27   Mainly Clear
13:00 25.8 11.6 41   10 15 24.1 98.79 28   Mainly Clear
14:00 25.7 10.2 38   9 15 24.1 98.79 27   Mainly Clear
15:00 25.5 10.9 40   9 11 24.1 98.75 27   Mainly Clear
16:00 24.8 9.1 37   5 17 24.1 98.75 26   Mainly Clear
17:00 24.6 10.1 40   6 11 15.0 98.75 26    
18:00 22.3 10.9 48   6 7 15.0 98.75      
19:00 18.5 12.6 68   9 6 15.0 98.75      
20:00 15.6 11.9 79   6 7 15.0 98.82      
21:00 14.6 12.0 84   9 6 15.0 98.85      
22:00 12.5 11.3 92   7 6 15.0 98.88      
23:00 13.4 12.0 91   8 7 15.0 98.88      

Notes on Data Quality.

Legend

  • E = Estimated
  • M = Missing
  • NA = Not Available*
  • [empty] = Indicates an unobserved value
Date modified: